Weather History for St. Joseph, MO

Change the Weather History Date:

Tuesday, May 20, 2014

  Actual Average Record
Temperature  
Mean Temperature 77 °F 66 °F  
Max Temperature 89 °F 77 °F 92 °F (1975)
Min Temperature 65 °F 55 °F 38 °F (2002)
Degree Days  
Heating Degree Days 0 3  
Month to date heating degree days 122 95  
Since 1 July heating degree days 6269 5433  
Cooling Degree Days 12 3  
Month to date cooling degree days 62 40  
Year to date cooling degree days 70 61  
Growing Degree Days 27 (Base 50)    
Moisture  
Dew Point 62 °F    
Average Humidity 62    
Maximum Humidity 81    
Minimum Humidity 43    
Precipitation  
Precipitation 0.00 in 0.18 in 1.33 in (1950)
Month to date precipitation 1.12 3.54  
Year to date precipitation 6.33 11.07  
Sea Level Pressure  
Sea Level Pressure 29.77 in    
Wind  
Wind Speed 11 mph (South)    
Max Wind Speed 20 mph    
Max Gust Speed 24 mph    
Visibility 10 miles    
Events      
T = Trace of Precipitation, MM = Missing Value Source: NWS Daily Summary

Daily Weather History Graph

Daily Weather History Graph

Search for Another Location

Airport:

Trip Planner

Search our weather history database for the weather conditions in past years. The results will help you decide how hot, cold, wet, or windy it might be!

Date:

Astronomy

May. 20, 2014 Rise Set
Actual Time 6:00 AM CDT 8:32 PM CDT
Civil Twilight 5:29 AM CDT 9:03 PM CDT
Nautical Twilight 4:51 AM CDT 9:41 PM CDT
Astronomical Twilight 4:08 AM CDT 10:25 PM CDT
Moon 1:03 AM CDT (5/20) 12:08 PM CDT (5/20)
Length of Visible Light 15h 33m
Length of Day
14h 31m
Waning Gibbous, 60% of the Moon is Illuminated
May 20
Waning Gibbous
May 21
Last Quarter
May 28
New
Jun 5
First Quarter
Jun 12
Full

Hourly Weather History & Observations

Time (CDT) Temp. Heat Index Dew Point Humidity Pressure Visibility Wind Dir Wind Speed Gust Speed Precip Events Conditions
1:53 AM 70.0 °F - 59.0 °F 68% 29.75 in 10.0 mi SSE 9.2 mph - N/A   Clear
2:53 AM 69.1 °F - 60.1 °F 73% 29.75 in 10.0 mi SSE 10.4 mph - N/A   Clear
4:53 AM 66.0 °F - 60.1 °F 81% 29.79 in 10.0 mi SE 6.9 mph - N/A   Clear
5:53 AM 66.0 °F - 60.1 °F 81% 29.78 in 10.0 mi SSE 9.2 mph - N/A   Clear
7:53 AM 71.1 °F - 61.0 °F 70% 29.79 in 10.0 mi SSE 12.7 mph - N/A   Clear
8:53 AM 73.9 °F - 62.1 °F 66% 29.79 in 10.0 mi South 12.7 mph - N/A   Clear
9:53 AM 75.9 °F - 62.1 °F 62% 29.79 in 10.0 mi South 15.0 mph - N/A   Clear
10:53 AM 79.0 °F - 62.1 °F 56% 29.78 in 10.0 mi SSW 13.8 mph - N/A   Clear
11:53 AM 82.0 °F 83.0 °F 62.1 °F 51% 29.78 in 10.0 mi SSW 11.5 mph 19.6 mph N/A   Clear
12:53 PM 82.9 °F 83.7 °F 62.1 °F 49% 29.77 in 10.0 mi SSW 8.1 mph 20.7 mph N/A   Clear
1:53 PM 84.9 °F 85.4 °F 62.1 °F 46% 29.76 in 10.0 mi South 9.2 mph 18.4 mph N/A   Clear
2:53 PM 86.0 °F 86.3 °F 62.1 °F 44% 29.76 in 10.0 mi South 12.7 mph 19.6 mph N/A   Scattered Clouds
3:53 PM 87.1 °F 87.5 °F 62.1 °F 43% 29.75 in 10.0 mi SSW 9.2 mph 21.9 mph N/A   Partly Cloudy
4:53 PM 88.0 °F 88.4 °F 62.1 °F 42% 29.75 in 10.0 mi SSW 15.0 mph 21.9 mph N/A   Mostly Cloudy
5:53 PM 86.0 °F 86.3 °F 62.1 °F 44% 29.75 in 10.0 mi South 15.0 mph - N/A   Mostly Cloudy
6:53 PM 86.0 °F 86.8 °F 63.0 °F 46% 29.74 in 10.0 mi South 15.0 mph - N/A   Partly Cloudy
7:53 PM 84.0 °F 84.9 °F 63.0 °F 49% 29.74 in 10.0 mi South 9.2 mph - N/A   Clear
8:53 PM 78.1 °F - 63.0 °F 60% 29.75 in 10.0 mi SSE 6.9 mph - N/A   Clear
9:53 PM 78.1 °F - 64.0 °F 62% 29.78 in 10.0 mi SSE 9.2 mph - N/A   Clear
10:53 PM 75.9 °F - 64.9 °F 69% 29.79 in 10.0 mi South 9.2 mph - N/A   Clear
11:53 PM 75.9 °F - 64.0 °F 67% 29.79 in 10.0 mi SSE 11.5 mph - N/A   Clear